Location: Oyen
(51.3536°N, 110.4816°W)
Time: 02:45:14
(UTC+00:00)

N. Korean satellite - Visible Passes

Search period start: 27 November 2021 00:00
Search period end: 07 December 2021 00:00
Orbit: 447 x 495 km, 97.3° (Epoch: 26 November)

Date Brightness Start Highest point End Pass type
(mag) Time Alt. Az. Time Alt. Az. Time Alt. Az.
27 Nov 7.7 00:00:23 10° S 00:03:52 49° W 00:07:21 10° NNW visible
27 Nov 6.3 12:53:11 10° NNE 12:56:38 85° WNW 13:00:01 10° SSW visible
28 Nov 10.3 01:08:32 10° W 01:09:05 10° W 01:09:37 10° WNW visible
28 Nov 7.6 12:24:50 10° NNE 12:28:08 42° E 12:31:22 10° S visible
28 Nov 7.9 13:58:46 10° NNW 14:01:03 17° WNW 14:03:19 10° WSW visible
29 Nov 9.5 00:37:39 10° SW 00:40:21 20° W 00:43:02 10° NW visible
29 Nov 9.0 11:56:51 10° NE 11:59:30 21° E 12:02:08 10° SE visible
29 Nov 7.1 13:29:42 10° N 13:32:47 32° WNW 13:35:50 10° SW visible
30 Nov 8.1 00:08:21 10° S 00:11:44 39° W 00:15:05 10° NNW visible
30 Nov 10.0 11:30:07 10° ENE 11:30:46 10° E 11:31:23 10° E visible
30 Nov 6.3 13:01:00 10° N 13:04:25 68° WNW 13:07:46 10° SSW visible
01 Dec 7.1 12:32:34 10° NNE 12:35:56 53° E 12:39:14 10° S visible
01 Dec 8.1 14:06:50 10° NNW 14:08:44 14° WNW 14:10:38 10° W visible
02 Dec 9.7 00:45:51 10° SW 00:48:11 17° W 00:50:31 10° NW visible
02 Dec 8.7 12:04:25 10° NE 12:07:18 25° E 12:10:09 10° SSE visible
02 Dec 7.4 13:37:35 10° N 13:40:29 26° WNW 13:43:22 10° SW visible
03 Dec 8.6 00:16:18 10° SSW 00:19:31 32° W 00:22:43 10° NNW visible
03 Dec 9.7 11:37:01 10° ENE 11:38:35 13° E 11:40:08 10° ESE visible
03 Dec 6.4 13:08:47 10° N 13:12:07 54° WNW 13:15:25 10° SSW visible
03 Dec 6.9 23:47:25 10° S 23:50:56 70° WSW 23:54:26 10° NNW visible
04 Dec 6.7 12:40:14 10° NNE 12:43:38 67° ESE 12:47:00 10° S visible
04 Dec 8.3 14:14:58 10° NW 14:16:21 12° WNW 14:17:45 10° W visible
05 Dec 9.8 00:54:06 10° WSW 00:55:58 14° W 00:57:49 10° WNW visible
05 Dec 8.3 12:11:59 10° NNE 12:15:02 30° E 12:18:03 10° SSE visible
05 Dec 7.6 13:45:25 10° NNW 13:48:07 22° WNW 13:50:47 10° WSW visible
06 Dec 8.9 00:24:13 10° SSW 00:27:14 26° W 00:30:14 10° NW visible
06 Dec 9.5 11:44:14 10° NE 11:46:18 15° E 11:48:22 10° SE visible
06 Dec 6.7 13:16:30 10° N 13:19:45 44° WNW 13:22:59 10° SW visible
